INTELSAT 1R (IS-1R)

Last updated on Jan. 27, 2020, 4:38 a.m. UTC

1 26608U 00072A   20026.80793042 -.00000145  00000-0  00000+0 0  9994
2 26608   2.3905  87.0738 0001018 285.8664 200.5641  1.00272121 70253
UTC
Height (km)
Latitude
Longitude
Inclination
Orbital Period
UTC large
Height (km)
Speed (km/s)
/
Latitude / Longitude
Inclination (degrees)
Orbital Period (minutes)
Azimuth
Elevation
Range (km)
Doppler Factor
iOS Compass Heading
iOS Angle

Next 30 passes for location: Hong Kong

Rise time Rise Azimuth (degrees) Set time Set Azimuth (degrees) Duration Max altitude (degrees)

No matching passes for this satellites